Theta_e
290 289 289 289 289 289 289 289 289 289 289 288 287 287 287 284 283 283 283 282 281 280 280 278 278 278 277 277 277 277 277 278
291 290 289 288 288 288 288 288 288 288 288 288 287 286 286 283 283 282 281 281 280 280 279 278 277 277 276 276 276 276 276 276
291 291 289 288 288 289 289 288 289 288 287 287 285 284 285 283 282 281 281 280 280 279 278 277 277 276 276 275 276 275 275 275
292 291 291 291 290 289 289 289 289 287 285 284 283 283 284 283 282 281 280 279 279 278 277 276 276 275 275 275 274 274 274 274
295 292 292 292 291 289 289 288 286 285 285 284 284 284 284 283 280 280 279 278 278 277 277 276 275 275 275 275 273 273 273 274
293 293 292 290 290 289 289 288 287 286 285 285 284 284 283 280 279 279 278 278 277 276 275 275 274 274 274 274 273 273 273 274
295 293 291 292 292 288 289 287 286 286 285 285 283 282 281 279 279 278 277 276 276 275 274 273 274 279 279 275 273 273 273 274
292 292 291 290 288 287 288 285 284 285 285 283 282 280 279 278 278 277 276 275 275 274 274 273 273 280 280 278 275 274 275 275
288 289 290 288 287 285 282 282 284 284 283 281 279 279 277 276 276 276 275 274 274 273 273 273 274 280 281 280 276 275 275 274
286 286 287 286 283 283 280 281 281 281 281 279 279 277 275 275 275 275 274 274 273 274 274 274 273 280 281 279 275 275 275 274
286 284 285 286 280 280 279 278 278 278 278 276 278 277 275 276 275 275 274 274 274 273 273 272 270 279 280 279 273 273 273 274
286 284 283 281 278 278 276 276 276 275 275 275 276 276 276 275 275 274 274 273 272 272 271 271 270 275 279 279 273 272 272 272
285 285 286 280 276 278 276 276 273 273 273 274 274 275 274 273 273 272 272 271 270 270 269 270 270 272 278 279 278 276 271 271
283 284 285 282 278 276 277 273 273 272 274 273 274 274 273 272 272 271 272 271 270 270 269 269 270 271 277 279 279 278 273 272
280 281 281 285 280 279 278 275 274 275 274 273 273 272 272 272 272 271 270 270 269 269 268 269 269 270 273 273 274 276 273 272
277 278 278 281 283 283 279 276 275 275 273 272 273 272 271 272 271 272 272 272 270 270 270 269 268 270 272 271 269 268 270 261
270 272 273 275 277 281 281 276 275 273 272 271 271 270 270 270 270 276 275 276 276 275 273 272 273 274 275 275 275 275 272 255
267 268 269 269 271 274 277 276 275 274 272 271 271 269 269 269 268 268 273 276 277 277 276 274 275 276 277 277 275 274 265 251
264 264 264 264 265 269 272 274 275 274 275 271 270 269 269 269 269 269 269 270 271 276 275 276 277 277 276 275 271 264 257 251
261 261 262 262 263 267 269 272 274 274 273 271 270 269 269 269 269 269 270 270 270 271 273 275 277 276 275 272 259 257 253 251
Wind_Speed
5 8 7 7 8 10 13 18 14 15 15 15 15 15 13 9 13 12 10 11 12 13 12 11 10 9 9 6 5 6 4 4
7 6 6 6 8 11 12 13 12 14 15 15 14 14 13 12 12 12 11 13 13 14 13 13 12 10 8 7 7 7 6 4
7 7 8 8 10 15 15 16 19 16 14 15 11 12 14 13 14 13 14 13 14 14 14 13 11 10 10 9 8 8 7 7
6 9 10 11 13 14 13 17 13 11 13 11 12 14 17 16 14 15 14 13 13 14 15 14 13 12 10 9 9 8 7 7
12 10 9 10 12 12 12 14 11 12 14 16 17 18 16 14 14 15 14 15 14 14 14 14 13 12 11 11 9 8 8 8
10 10 10 9 11 11 15 12 14 15 16 19 16 14 14 14 15 15 15 15 16 14 12 13 12 10 12 11 10 10 8 7
18 15 14 12 13 9 11 12 13 15 17 15 13 14 15 14 15 15 15 14 14 14 14 13 9 20 21 14 9 9 9 8
15 13 12 12 9 10 12 8 13 15 14 14 14 15 15 14 14 15 15 14 14 13 13 13 10 22 21 19 9 9 8 8
15 15 15 11 11 9 4 8 11 12 11 12 14 14 14 15 15 14 13 15 15 13 13 12 10 22 22 21 8 7 7 7
9 8 11 13 13 11 4 6 7 8 11 12 13 13 14 15 15 13 13 13 13 14 16 16 12 23 23 18 9 8 8 5
15 10 11 13 7 8 6 2 2 3 3 4 9 11 13 14 14 12 12 11 10 10 9 10 10 22 22 17 7 9 6 5
15 11 11 12 8 6 6 4 2 5 6 7 6 8 8 10 9 11 11 11 10 11 9 9 10 12 22 21 10 8 6 6
18 16 12 7 6 12 7 3 2 7 6 6 8 7 8 11 10 11 12 12 11 12 10 9 10 14 21 24 19 16 7 7
16 19 16 7 6 9 6 1 1 5 8 9 9 8 9 11 12 10 12 11 11 11 10 9 8 9 23 24 21 18 7 6
17 18 17 14 6 8 6 5 4 6 7 7 13 13 12 9 10 10 11 10 10 12 11 10 9 9 9 7 9 12 7 6
16 17 19 17 16 12 7 7 8 8 7 8 9 11 11 13 13 13 13 16 15 13 13 14 12 11 13 9 3 3 4 5
19 20 19 16 18 18 8 9 10 10 8 9 9 9 10 9 6 18 17 24 22 18 12 9 12 22 22 20 15 14 11 4
19 20 19 18 21 17 15 10 13 13 11 9 10 10 11 10 11 12 13 20 22 23 24 22 21 26 22 19 15 13 7 2
20 22 19 20 23 16 17 18 16 14 14 10 11 11 10 11 12 11 12 14 12 21 23 27 28 25 22 19 13 5 3 2
22 23 20 21 24 15 15 19 16 12 10 11 10 9 11 10 11 10 11 12 12 13 19 23 29 27 23 22 4 4 3 3
Wind_Direction
230 202 199 188 181 187 190 201 196 195 199 197 197 200 195 178 187 184 174 165 168 173 170 167 168 171 171 171 172 168 172 164
240 228 205 182 184 195 198 198 200 197 200 200 197 190 190 187 187 179 166 170 174 175 169 171 173 174 169 168 170 173 175 166
228 200 209 206 199 206 200 202 204 197 194 202 187 182 188 190 185 172 175 176 172 170 170 170 170 170 176 176 178 173 172 176
253 236 223 217 217 216 210 217 207 186 188 187 187 189 197 193 182 175 171 174 168 169 172 170 173 170 175 176 176 174 174 170
271 243 234 228 218 207 215 210 196 195 191 198 198 199 197 189 176 174 172 168 174 179 174 171 167 171 173 174 175 175 177 180
281 273 248 225 233 225 222 201 194 199 202 209 204 197 187 177 173 170 172 177 176 168 171 168 168 170 172 170 174 181 177 183
261 255 254 249 242 228 229 218 196 203 209 203 190 182 183 177 173 170 175 173 168 175 168 165 172 182 183 173 174 177 178 186
318 283 273 264 242 243 233 196 192 205 205 192 181 181 178 173 171 175 174 165 172 169 165 168 166 184 188 184 178 178 183 191
336 335 328 305 296 278 240 208 204 203 188 180 177 177 169 168 174 171 170 173 169 168 165 161 174 186 189 191 164 176 184 198
292 302 311 317 321 306 253 197 175 192 193 181 176 171 168 174 174 167 168 173 172 169 167 174 173 185 187 181 168 182 197 191
313 314 321 320 319 306 295 258 237 97 131 157 168 172 178 172 170 164 168 164 161 162 167 158 158 186 186 177 164 178 175 196
320 316 311 316 320 286 279 262 143 106 134 137 145 157 163 153 158 152 157 150 156 148 145 149 163 197 187 187 180 177 173 187
310 309 317 308 309 300 293 207 157 134 122 136 129 140 150 152 154 152 155 155 157 154 154 159 168 192 197 198 183 184 176 183
306 306 313 303 243 270 276 244 151 141 164 151 142 149 157 159 160 163 167 170 168 168 169 171 171 185 201 195 194 190 164 156
304 303 302 302 261 248 254 171 191 222 196 177 165 168 172 170 171 173 176 178 179 178 173 164 170 180 193 198 184 187 189 175
306 308 303 308 304 288 237 180 206 223 211 196 189 190 184 186 185 187 194 186 178 181 170 163 175 183 177 177 177 134 191 101
298 293 297 305 305 304 278 204 215 211 204 208 191 189 183 184 190 212 193 193 194 188 166 154 163 169 169 174 185 185 148 48
292 293 297 299 292 290 299 242 227 223 202 200 211 183 178 187 178 169 194 199 189 178 164 159 159 167 168 166 162 169 124 110
286 283 290 283 278 287 283 277 247 235 221 197 196 193 186 184 181 173 177 174 177 173 157 154 161 158 162 155 147 131 69 200
285 285 286 283 278 282 279 278 252 231 214 199 200 191 180 176 170 176 175 170 160 149 156 160 158 159 155 152 141 150 163 185